Starlink 11116

operational
NORAD ID: 60045 Int'l Des: 2024-112 Owner: SPXS Country: US Constellation: starlink
LEOCIRCULAR

关于 Starlink 11116

正在加载描述...

实时位置

正在加载3D地球...

即将过境

高度历史

Altitude vs Time

uPlot chart will show altitude changes over time

两行轨道根数

1 60045U 24112H 25260.64739360 -.00001435 00000-0 -69904-5 0 9996
2 60045 53.1579 39.2390 0000957 71.2220 288.8902 15.69716294 73803
Epoch: Sep 17, 2025 • Age: 23 hours

当前状态

高度 360.0 km
速度 7.69 km/s
星下点 3.78°N, 177.59°W
发射日期 Jun 8, 2024
运行时间 1.2 years
类型 internet

技术详情

分类 Payload
质量 960.00 kg
干质量 910.00 kg
总质量 960.00 kg
长度 0.30 m
直径 4.10 m
跨度 29.00 m
形状 Box + pan
制造商 SPXS
平台类型 Starlink V2MD
阶段状态 In Orbit
所有者/国家 SPXS/US

大型星座

Loading constellations...